weather.gov     
National Weather Service

Regional Weather Roundup
NWS Homepage
This page is being discontinued on March 12, 2014.
The same data is available at this site. Please update your bookmarks.
Thank you, and we apologize for the inconvenience.
Please send an email to SR-SRH.Webmaster@noaa.gov with any concerns.


Current Version
Previous Version:    01  02  03  04  05  06  07  08  09  10  11  12  13  14  15  16  17  18  19  20  21  22  23  24  25  26  
[Printable]
172
ASUS44 KLZK 192005
RWRLZK

WEATHER ROUNDUP FOR ARKANSAS
NATIONAL WEATHER SERVICE LITTLE ROCK AR
200 PM CST FRI DEC 19 2014

NOTE: "FAIR" INDICATES FEW OR NO CLOUDS BELOW 12,000 FEET WITH NO
SIGNIFICANT WEATHER AND/OR OBSTRUCTIONS TO VISIBILITY.

ARZ001-003-010-029-192100-
NORTHWEST ARKANSAS

CITY           SKY/WX    TMP DP  RH WIND       PRES   REMARKS
FAYETTEVILLE   CLOUDY    41  40  96 CALM      30.17F FOG
FORT SMITH     CLOUDY    44  39  82 E7        30.19F HAZE
HARRISON       CLOUDY    38  38 100 E6        30.17F FOG
BENTONVILLE    CLOUDY    41  37  87 NE5       30.18F
ROGERS         LGT RAIN  40  39  97 NE5       30.17F FOG
SILOAM SPGS    CLOUDY    41  36  81 N5        30.18F
HIGHFILL       CLOUDY    42  40  92 N3        30.16F FOG
SPRINGDALE     CLOUDY    41  39  93 CALM      30.18F
$$

ARZ004-005-016-192100-
NORTH CENTRAL ARKANSAS

CITY           SKY/WX    TMP DP  RH WIND       PRES   REMARKS
BATESVILLE     CLOUDY    41  34  75 N6        30.22F
FLIPPIN        CLOUDY    37  32  81 E3        30.20F
MTN HOME       CLOUDY    37  34  89 E8        30.19F
$$

ARZ040-041-192100-
WEST CENTRAL ARKANSAS

CITY           SKY/WX    TMP DP  RH WIND       PRES   REMARKS
MENA           CLOUDY    45  41  87 E5        30.16S
MOUNT IDA      CLOUDY    43  40  89 CALM      30.14F
$$

ARZ009-017-025-026-028-192100-
NORTHEAST ARKANSAS

CITY           SKY/WX    TMP DP  RH WIND       PRES   REMARKS
CORNING        FAIR      39  32  75 NE8       30.25F
JONESBORO      CLOUDY    41  35  79 NE12      30.22F
NEWPORT        CLOUDY    41  36  82 NE13      30.22F
WALNUT RIDGE   CLOUDY    39  32  75 NE8       30.23F
BLYTHEVILLE    CLOUDY    43  31  62 NE9       30.24F
$$

ARZ022-023-033-042-044-192100-
CENTRAL ARKANSAS

CITY           SKY/WX    TMP DP  RH WIND       PRES   REMARKS
LITTLE ROCK    LGT RAIN  44  37  76 NE7       30.21R
N LITTLE ROCK  CLOUDY    41  40  97 N6        30.21R
JACKSONVILLE   LGT RAIN  42  38  87 NE7       30.21R
SEARCY         CLOUDY    41  35  79 NE9       30.23R
HOT SPRINGS    CLOUDY    42  40  92 E8        30.17F FOG
RUSSELLVILLE   CLOUDY    44  37  76 E3        30.19F
CLINTON        CLOUDY    41  37  87 CALM      30.22F HAZE
$$

ARZ036-192100-
EAST ARKANSAS

CITY           SKY/WX    TMP DP  RH WIND       PRES   REMARKS
WEST MEMPHIS   CLOUDY    43  36  76 NE8       30.21F
$$

ARZ050-053-066-070-073-192100-
SOUTHWEST ARKANSAS

CITY           SKY/WX    TMP DP  RH WIND       PRES   REMARKS
ARKADELPHIA    MOCLDY    44  44 100 NE7       30.20F
CAMDEN         CLOUDY    46  41  81 MISG      30.17R
TEXARKANA      CLOUDY    46  44  93 NE7       30.15F
EL DORADO      CLOUDY    45  43  93 NE9       30.14F
DE QUEEN       CLOUDY    46  43  89 E7        30.16F
$$

ARZ056-057-069-192100-
SOUTHEAST ARKANSAS

CITY           SKY/WX    TMP DP  RH WIND       PRES   REMARKS
PINE BLUFF     CLOUDY    46  39  76 E7        30.19F
STUTTGART      CLOUDY    45  36  70 NE8       30.21R
MONTICELLO     LGT RAIN  46  42  86 E6        30.17F

$$






U.S. Dept. of Commerce
NOAA National Weather Service
1325 East West Highway
Silver Spring, MD 20910
E-mail: w-nws.webmaster@noaa.gov
Page last modified: May 16, 2007
NATIONAL WEATHER SERVICE: for Safety, for Work, for Fun - FOR LIFE